CDT,Max TemperatureF,Mean TemperatureF,Min TemperatureF,Max Dew PointF,MeanDew PointF,Min DewpointF,Max Humidity, Mean Humidity, Min Humidity, Max Sea Level PressureIn, Mean Sea Level PressureIn, Min Sea Level PressureIn, Max VisibilityMiles, Mean VisibilityMiles, Min VisibilityMiles, Max Wind SpeedMPH, Mean Wind SpeedMPH, Max Gust SpeedMPH,PrecipitationIn, CloudCover, Events, WindDirDegrees
2013-7-1,87,72,57,62,55,48,87,57,27,30.21,30.16,30.11,10,8,6,10,3,12,0.00,1,,318
2013-7-2,88,74,59,62,56,49,90,58,26,30.12,30.07,29.99,10,9,6,8,2,10,0.00,3,,202
2013-7-3,89,75,60,62,57,52,84,57,29,29.98,29.90,29.79,10,10,10,15,7,18,0.00,2,,184
2013-7-4,88,75,62,65,60,54,79,60,40,29.78,29.69,29.62,10,10,10,21,10,26,0.00,3,,188
2013-7-5,88,77,65,66,63,59,93,66,39,29.72,29.68,29.65,10,10,8,14,6,18,0.00,3,,325
2013-7-6,86,76,66,70,66,60,90,75,59,29.76,29.74,29.72,10,9,7,21,7,25,0.10,5,Rain,110
2013-7-7,84,74,63,67,62,56,100,70,40,29.91,29.82,29.75,10,8,0,14,6,18,0.00,3,Fog,281
2013-7-8,87,72,56,64,60,55,93,66,39,29.94,29.90,29.82,10,10,10,13,6,21,0.00,2,,190
2013-7-9,73,65,57,64,60,55,93,77,61,30.00,29.87,29.75,10,10,5,30,10,40,0.15,6,Rain,329
2013-7-10,80,68,55,60,55,53,93,68,42,30.04,30.00,29.94,10,9,5,15,7,21,0.00,0,,273
2013-7-11,88,71,54,67,60,52,93,68,43,29.97,29.86,29.71,10,10,8,24,13,31,0.00,1,,170
2013-7-12,86,76,65,72,68,64,100,81,61,29.83,29.72,29.65,10,7,0,26,9,38,1.04,5,Fog-Rain-Thunderstorm,211
2013-7-13,89,76,62,72,66,62,100,72,43,29.95,29.88,29.81,10,5,0,14,5,22,0.00,4,Fog,202
2013-7-14,80,72,64,72,63,58,100,74,48,30.16,30.05,29.92,10,9,5,18,10,26,0.00,6,,358
2013-7-15,80,72,64,69,65,58,93,79,64,30.15,30.09,29.99,10,10,10,20,9,26,0.00,7,,156
2013-7-16,90,79,67,69,65,60,84,67,50,30.12,30.01,29.95,10,10,10,25,10,31,0.00,4,,207
2013-7-17,82,74,65,62,58,53,87,65,42,30.18,30.13,30.01,10,10,10,16,10,20,0.00,6,,34
2013-7-18,88,76,64,73,66,58,93,77,61,29.99,29.77,29.63,10,10,10,18,7,22,0.00,4,,337
2013-7-19,82,71,60,63,59,50,93,68,43,29.89,29.80,29.68,10,10,10,20,10,26,T,3,Rain-Thunderstorm,307
2013-7-20,71,62,52,51,48,46,89,65,41,30.03,29.97,29.92,10,10,10,18,8,22,0.00,4,,12
2013-7-21,82,65,47,68,57,46,93,68,43,29.95,29.76,29.55,10,9,1,18,5,23,0.67,4,Rain-Thunderstorm,162
2013-7-22,71,62,53,66,58,52,93,77,61,29.93,29.74,29.57,10,10,10,21,11,26,0.00,4,Rain,319
2013-7-23,74,62,50,57,53,49,96,71,46,30.06,30.01,29.95,10,10,10,9,3,12,0.00,4,,325
2013-7-24,81,67,52,60,56,51,93,69,45,30.02,29.94,29.86,10,10,10,18,7,24,0.00,3,,264
2013-7-25,77,67,56,61,56,51,100,72,43,29.96,29.90,29.86,10,10,7,25,12,32,T,3,,301
2013-7-26,70,59,47,54,48,41,93,65,37,30.20,30.12,29.96,10,10,10,25,15,31,T,4,Rain,356
2013-7-27,72,59,45,49,45,42,93,64,35,30.19,30.10,30.02,10,10,10,23,10,30,0.00,3,,339
2013-7-28,76,59,42,50,45,38,100,65,29,30.05,30.02,29.98,10,10,10,12,3,20,0.00,2,,16
2013-7-29,80,64,47,60,51,44,93,66,39,30.02,29.98,29.94,10,10,10,20,9,24,0.09,5,Rain,175
2013-7-30,74,67,59,61,59,57,97,77,57,30.02,29.99,29.95,10,10,10,13,7,21,0.02,6,,252
2013-7-31,75,64,53,59,52,48,93,67,41,30.05,30.01,29.97,10,10,9,20,10,28,0.01,3,Rain,283